Lid_Strength_Index
6 6 6 6 6 7 7 8 10 5 3 8 9 11 10 10 10 8 9 9 9 8 7 7 7 7 6 4 5 7 5 7 9 8 5 5 6 7 7 10 11 9 10 9
4 4 4 4 5 5 5 7 6 2 4 10 9 8 9 9 10 10 10 10 9 8 8 8 7 6 5 5 5 6 5 8 10 9 7 6 7 7 6 7 7 10 11 10
2 2 2 2 2 2 3 5 8 5 4 4 7 9 10 11 8 9 9 10 9 9 9 7 8 7 5 4 5 4 5 7 8 10 9 7 8 7 7 7 9 9 9 8
2 1 0 0 0 0 2 4 6 4 8 7 6 7 7 10 11 9 8 9 9 10 10 9 9 7 6 5 4 5 5 8 7 7 7 7 7 7 7 8 7 9 8 8
-0 -0 -1 -1 -1 -0 2 6 6 4 6 5 6 7 8 9 10 9 10 10 8 8 8 8 9 7 6 6 5 5 5 8 7 8 7 7 8 7 7 7 7 7 7 7
-1 -1 -1 -1 -1 0 3 2 2 4 6 6 7 8 8 8 7 7 6 8 9 8 7 5 5 5 5 5 6 6 6 7 9 10 8 8 10 8 7 7 6 7 8 6
-1 -1 -1 -1 -1 -1 1 2 3 7 8 7 7 7 7 7 7 7 8 7 9 6 5 5 5 4 5 5 5 5 6 8 8 10 9 14 8 5 6 6 6 5 5 5
-1 -1 -1 -1 -1 -1 0 0 3 6 8 6 6 6 7 7 6 6 7 7 6 5 6 7 8 8 8 7 6 5 5 7 9 11 11 9 8 7 7 8 8 5 5 5
-1 -1 -1 -1 -1 -1 -0 0 1 4 8 7 6 7 6 8 8 7 6 5 4 6 8 9 12 12 9 10 8 5 6 6 9 10 13 14 9 7 6 6 9 5 5 5
-1 -1 -1 -1 -1 -1 -1 1 -0 3 8 5 4 7 8 6 7 9 6 6 6 5 10 12 12 11 7 10 10 9 9 9 11 11 12 9 7 6 5 11 10 6 5 5
-1 -1 -1 -1 -1 -1 -1 1 -1 3 6 5 3 3 5 6 6 10 6 7 7 8 11 11 10 10 9 9 8 9 9 10 10 10 12 13 6 6 9 8 5 5 5 5
-1 -1 -1 -1 -1 -1 -1 2 -1 -0 4 5 1 2 1 2 3 5 6 7 7 6 9 10 10 12 10 9 11 6 10 8 9 8 9 6 5 6 5 5 5 5 4 4
-1 -1 -1 -1 -1 -1 -0 1 0 1 4 4 4 4 1 0 2 2 7 6 6 6 5 8 9 13 11 12 10 8 6 5 8 9 8 7 6 5 4 4 5 4 4 4
-1 -1 -1 -1 -1 -0 -0 1 -0 2 4 7 5 1 2 1 1 2 3 4 3 4 5 9 10 11 8 12 11 10 11 9 9 9 7 6 6 5 4 4 3 4 4 4
-1 -1 -0 -0 0 0 0 0 -0 -0 4 7 5 2 1 1 2 3 3 4 5 7 8 10 11 8 8 8 10 11 9 10 12 11 6 7 6 4 4 4 4 3 4 4
-0 -0 -0 -0 1 0 1 4 1 -0 1 6 8 3 3 2 2 2 3 4 5 6 9 9 7 6 8 12 13 9 7 7 6 9 5 5 4 4 5 4 4 4 3 3
-0 0 0 1 0 1 3 5 2 2 1 6 9 8 4 2 2 3 3 4 6 8 9 8 8 8 8 10 13 8 7 6 6 4 5 6 5 6 5 5 5 5 4 4
-0 0 1 0 0 1 4 2 1 1 4 6 10 9 6 2 5 6 3 6 5 6 7 7 8 8 8 12 9 7 6 6 6 5 4 4 4 4 4 5 6 6 6 4
-0 0 0 0 2 3 2 1 1 2 5 9 9 11 11 3 6 4 5 5 9 6 9 9 8 10 12 10 8 7 6 7 7 6 5 5 5 5 4 5 6 6 6 5
-0 0 2 4 1 1 1 3 6 7 7 7 9 6 9 6 5 6 6 5 8 12 10 7 10 11 8 7 6 6 6 7 6 7 8 7 8 7 6 6 5 5 5 5
1 3 4 1 -0 2 4 7 9 9 9 7 7 6 8 4 8 9 7 9 8 13 11 11 12 12 9 6 6 5 5 4 6 6 6 5 5 5 5 5 4 5 4 3
2 2 1 1 4 6 9 9 8 9 11 7 8 7 5 5 4 8 7 10 10 14 8 11 14 10 7 6 6 5 4 4 4 4 4 4 4 4 4 4 4 4 3 3
0 3 5 6 6 12 12 13 12 11 8 7 6 8 5 5 6 8 9 10 11 8 11 13 11 7 6 6 5 5 4 4 4 4 3 3 3 3 3 3 3 3 3 2
5 7 12 10 11 9 10 10 9 6 5 6 6 6 6 5 6 7 10 9 8 12 14 14 10 7 6 5 4 4 4 4 5 5 4 4 4 3 2 2 2 3 3 3
6 6 12 9 6 5 6 5 5 5 4 5 6 6 5 6 8 7 9 11 14 13 14 10 8 6 5 4 4 4 3 4 4 4 4 4 3 3 3 2 2 2 2 2
4 6 7 5 6 6 6 5 5 4 4 4 5 7 8 9 9 10 11 12 14 12 9 7 6 6 4 4 4 3 3 3 2 2 3 3 2 2 2 2 1 1 2 2
5 6 4 4 5 5 5 4 4 3 5 7 6 10 11 7 10 11 10 12 10 8 7 6 5 5 4 4 4 3 3 3 2 2 2 2 1 1 2 2 2 2 2 1